E1763 Weather Reports


Display with metric or nautical units.
time (UTC)temp
F
wind
direction
speed
MPH
gust
MPH
rain 1hr
in
rain 24hr
in
rain mn
in
humidity
%
barometer
mb
20260906054522 55 265 0.0 0.0 0.00 0.01 0.01 93 1009.9
20260906053027 55 167 0.0 0.0 0.00 0.01 0.01 93 1010.1
20260906051530 55 220 0.0 0.0 0.00 0.01 0.01 92 1010.1
20260906050046 55 197 0.0 0.0 0.00 0.01 0.01 92 1010.2
20260906044520 55 197 0.0 0.0 0.00 0.01 0.01 91 1010.2
20260906043020 55 197 0.0 0.0 0.00 0.01 0.01 91 1010.1
20260906041519 55 198 0.0 0.0 0.00 0.01 0.01 89 1010.0
20260906040018 56 197 0.0 0.0 0.00 0.01 0.01 89 1010.0
20260906034523 56 198 0.0 0.0 0.00 0.01 0.01 88 1009.8
20260906033024 57 197 0.0 0.0 0.00 0.01 0.01 86 1009.6
20260906031519 58 197 0.0 0.0 0.00 0.01 0.01 84 1009.4
20260906030018 59 197 0.0 0.0 0.00 0.01 0.01 82 1009.3
20260906024515 61 197 0.0 0.0 0.00 0.01 0.01 79 1009.2
20260906023016 63 197 0.0 0.0 0.00 0.01 0.01 75 1009.2
20260906021516 64 258 0.0 0.0 0.00 0.01 0.01 73 1009.2
20260906020012 64 304 0.0 0.0 0.00 0.01 0.01 70 1009.3
20260906014511 66 355 0.0 0.0 0.00 0.01 0.01 66 1009.3
20260906013012 68 252 0.0 0.0 0.00 0.01 0.01 63 1009.2
20260906011510 68 340 0.0 0.0 0.00 0.01 0.01 60 1009.2
20260906010010 69 15 0.0 0.0 0.00 0.01 0.01 58 1009.1
20260906004507 70 15 0.0 0.0 0.00 0.01 0.01 60 1009.1
20260906003006 71 355 0.0 0.0 0.00 0.01 0.01 57 1009.1
20260906001604 72 241 0.0 0.0 0.00 0.01 0.01 57 1009.1
20260906000006 72 214 0.0 0.0 0.00 0.01 0.01 57 1009.0
20260905234504 71 255 0.0 0.0 0.00 0.01 0.01 56 1009.1
20260905233002 71 213 0.0 0.0 0.00 0.01 0.01 57 1009.0
20260905231502 71 244 0.0 0.0 0.00 0.01 0.01 59 1009.2
20260905230001 72 202 0.0 0.0 0.00 0.01 0.01 59 1009.3
20260905224606 74 233 0.0 0.0 0.00 0.01 0.01 59 1009.3
20260905223059 74 169 0.0 0.0 0.00 0.01 0.01 58 1009.4
20260905221600 75 261 0.0 0.0 0.00 0.01 0.01 57 1009.4
20260905220057 75 213 0.0 0.0 0.00 0.01 0.01 58 1009.3
20260905214605 75 217 0.0 0.0 0.00 0.01 0.01 56 1009.3
20260905213053 75 241 0.0 4.0 0.00 0.01 0.01 56 1009.2
20260905211551 75 261 0.0 6.0 0.00 0.01 0.01 58 1009.2
20260905210050 75 286 0.0 7.0 0.00 0.01 0.01 58 1009.2
20260905204548 75 243 0.0 0.0 0.00 0.01 0.01 60 1009.2
20260905203045 75 234 1.0 5.0 0.00 0.01 0.01 58 1009.2
20260905201542 74 222 0.0 0.0 0.00 0.01 0.01 63 1009.2
20260905200045 74 191 0.0 0.0 0.00 0.01 0.01 57 1009.3
20260905194534 71 221 0.0 0.0 0.00 0.01 0.01 66 1009.3
20260905193032 70 229 0.0 1.0 0.00 0.01 0.01 67 1009.4
20260905191531 70 262 0.0 0.0 0.00 0.01 0.01 68 1009.6
20260905190029 70 255 0.0 0.0 0.00 0.01 0.01 71 1009.6
20260905184532 67 191 0.0 1.0 0.00 0.01 0.01 77 1009.7
20260905183026 66 189 0.0 0.0 0.00 0.01 0.01 84 1009.9
20260905181517 63 190 0.0 0.0 0.00 0.01 0.01 88 1009.9
20260905180015 62 180 0.0 1.0 0.00 0.01 0.01 93 1009.9
20260905174525 59 271 0.0 0.0 0.00 0.01 0.01 96 1009.9
20260905173006 58 225 0.0 0.0 0.00 0.01 0.01 97 1009.9
20260905171506 57 206 0.0 0.0 0.00 0.01 0.01 97 1009.9
20260905170004 56 206 0.0 0.0 0.00 0.01 0.01 97 1009.9
20260905164503 55 233 0.0 0.0 0.00 0.01 0.01 96 1009.9
20260905163004 55 190 0.0 0.0 0.00 0.01 0.01 96 1009.8
20260905161502 54 28 0.0 0.0 0.00 0.01 0.01 96 1009.8
20260905160002 54 28 0.0 0.0 0.00 0.01 0.01 96 1009.9
20260905154502 53 28 0.0 0.0 0.00 0.01 0.01 96 1009.9
20260905153000 53 28 0.0 0.0 0.00 0.01 0.01 96 1009.8
20260905151600 52 28 0.0 0.0 0.00 0.01 0.01 96 1009.7
20260905150101 52 54 0.0 0.0 0.00 0.01 0.01 96 1009.6
20260905144558 52 52 0.0 0.0 0.00 0.01 0.01 96 1009.5
20260905143058 52 47 0.0 0.0 0.00 0.01 0.01 96 1009.6
20260905141612 52 32 0.0 0.0 0.00 0.01 0.01 96 1009.4
20260905134606 51 32 0.0 0.0 0.00 0.01 0.01 96 1009.3
20260905133058 51 32 0.0 0.0 0.00 0.01 0.01 96 1009.2
20260905131558 52 32 0.0 0.0 0.00 0.01 0.01 96 1009.2
20260905130057 52 32 0.0 0.0 0.00 0.01 0.01 96 1009.1
20260905124551 52 32 0.0 0.0 0.00 0.01 0.01 96 1009.1
20260905123055 52 32 0.0 0.0 0.00 0.01 0.01 96 1009.3
20260905121549 52 38 0.0 0.0 0.00 0.01 0.01 96 1009.2
20260905120147 52 46 0.0 0.0 0.00 0.01 0.01 96 1009.3
20260905114621 52 26 0.0 0.0 0.01 0.01 0.01 95 1009.3
20260905113044 51 49 0.0 0.0 0.01 0.01 0.01 95 1009.3
20260905111550 51 36 0.0 0.0 0.01 0.01 0.01 95 1009.4
20260905110042 51 58 0.0 0.0 0.01 0.01 0.01 95 1009.4
20260905104539 51 24 0.0 0.0 0.00 0.00 0.00 95 1009.5
20260905103038 51 24 0.0 0.0 0.00 0.00 0.00 95 1009.7
20260905101536 52 24 0.0 0.0 0.00 0.00 0.00 95 1009.9
20260905100040 52 24 0.0 0.0 0.00 0.00 0.00 95 1009.8
20260905094533 52 24 0.0 0.0 0.00 0.00 0.00 95 1009.8
20260905093032 53 24 0.0 0.0 0.00 0.00 0.00 94 1009.9
20260905091528 53 24 0.0 0.0 0.00 0.00 0.00 94 1010.0
20260905090027 54 24 0.0 0.0 0.00 0.00 0.00 94 1010.2
20260905084523 55 319 0.0 0.0 0.00 0.00 0.00 94 1010.0
20260905083022 56 319 0.0 0.0 0.00 0.00 0.00 94 1010.1
20260905081520 56 319 0.0 0.0 0.00 0.00 0.00 94 1010.0
20260905080022 56 319 0.0 0.0 0.00 0.00 0.00 94 1010.0
20260905074519 56 319 0.0 0.0 0.00 0.00 0.00 94 1010.0
20260905073021 57 319 0.0 0.0 0.00 0.00 0.00 94 1010.1
20260905071515 57 319 0.0 0.0 0.00 0.00 0.00 94 1010.2
20260905070012 57 319 0.0 0.0 0.00 0.00 0.00 94 1010.1
20260905064514 57 24 0.0 0.0 0.00 0.01 0.00 94 1010.0
20260905063012 57 324 0.0 0.0 0.00 0.01 0.00 94 1009.9
20260905061511 56 289 0.0 0.0 0.00 0.01 0.00 93 1009.9
20260905060015 56 289 0.0 0.0 0.00 0.01 0.00 93 1009.9